Skip Page Navigation
NASA JPL Caltech
NASA Logo - Jet Propulsion Laboratory + View the NASA Portal
+ Center for Near-Earth Object Studies
JPL Home Earth Solar System Stars & Galaxies Technology
JPL Solar System Dynamics
BODIES ORBITS EPHEMERIDES TOOLS PHYSICAL DATA DISCOVERY FAQ SITE MAP
IMPORTANT: The SSD Announcement email list is now available. Major changes are coming in the near future, including possible hostname and/or URL changes. To be notified of such changes, subscribe to this email list.

Please visit this page for more details.


JPL Small-Body Database Browser
Search: [ help ]  
11881 Mirstation (1990 QO6)
Classification: Main-belt Asteroid          SPK-ID: 2011881
Ephemeris | Orbit Diagram | Orbital Elements | Mission Design | Physical Parameters | Discovery Circumstances ]

[ show orbit diagram ]
Orbital Elements at Epoch 2458600.5 (2019-Apr-27.0) TDB
Reference: JPL 25 (heliocentric ecliptic J2000)
 Element Value Uncertainty (1-sigma)   Units 
e .1739008718576122 4.2355e-08  
a 2.652828818993025 1.3244e-08 au
q 2.191499574481139 1.1287e-07 au
i 13.70076869567971 4.8533e-06 deg
node 157.3875596435038 1.8329e-05 deg
peri 178.9293678343372 2.2308e-05 deg
M 228.9785857417979 1.3537e-05 deg
tp 2459174.883623852564
(2020-Nov-21.38362385)
6.0919e-05 TDB
period 1578.200828907467
4.32
1.1818e-05
3.236e-08
d
yr
n .2281078512987573 1.7082e-09 deg/d
Q 3.114158063504912 1.5547e-08 au
  Orbit Determination Parameters
   # obs. used (total)      1288  
   data-arc span      15219 days (41.67 yr)  
   first obs. used      1977-09-08  
   last obs. used      2019-05-10  
   planetary ephem.      DE431  
   SB-pert. ephem.      SB431-N16  
   condition code      0  
   norm. resid. RMS      .53604  
   source      ORB  
   producer      Otto Matic  
   solution date      2019-May-30 01:58:15  

Additional Information
 Earth MOID = 1.18121 au 
 Jupiter MOID = 2.28156 au 
 T_jup = 3.328 
[ show covariance matrix ]

Ephemeris | Orbit Diagram | Orbital Elements | Mission Design | Physical Parameters | Discovery Circumstances ]

Physical Parameter Table
Parameter Symbol Value Units Sigma Reference Notes
absolute magnitude H 14.1   n/a MPO473927  
diameter diameter 3.993 km 0.189 urn:nasa:pds:neowise_diameters_albedos::2.0[mainbelt] (http://adsabs.harvard.edu/abs/2011ApJ...741...68M)  
geometric albedo albedo 0.231   0.026 urn:nasa:pds:neowise_diameters_albedos::2.0[mainbelt] (http://adsabs.harvard.edu/abs/2011ApJ...741...68M)  

11881 Mirstation           Discovered 1990 Aug. 20 by E. W. Elst at the European Southern Observatory.
The Russian space station Mir, launched in 1986, remained in service for more than 15 years as a laboratory for a wealth of scientific experiments performed on board by international crews. Mir was destroyed in March 2001 in order to avoid an uncontrolled return into the earth's atmosphere.
NOTE: some special characters may not display properly (any characters within {} are an attempt to place the proper accent above a character)
Reference: 20010509/MPCPages.arcLast Updated: 2009-05-11

Alternate Designations
 1990 QO6 = 1977 RM8 = 1990 RG7 
Ephemeris | Orbit Diagram | Orbital Elements | Mission Design | Physical Parameters | Discovery Circumstances ]
ABOUT SSD CREDITS/AWARDS PRIVACY/COPYRIGHT GLOSSARY LINKS
FirstGov 2020-Jan-24 01:57 UT
(server date/time)  
NASA Home Page
Site Manager:   Ryan S. Park
Webmaster  Alan B. Chamberlin